Skylink-2

operational
NORAD ID: 62672 Int'l Des: NNA 2025-009 Owner: HELLO Country: TR
LEOCIRCULARRETROGRADESSO

About Skylink-2

Description loading...

Live Position

Loading 3D Globe...

Upcoming Passes

Altitude History

Altitude vs Time

uPlot chart will show altitude changes over time

Two-Line Element Set

1 62672U 25009BR 26061.16564690 .00005975 00000-0 26477-3 0 9996
2 62672 97.4024 141.9376 0004554 9.9362 350.1963 15.21982541120108
Epoch: Mar 2, 2026 • Age: 27 hours

Current Status

Altitude 526.7 km
Velocity 7.60 km/s
Sub-Earth Point -74.73°S, 39.4°W
Launch Date Jan 14, 2025
Age 1.1 years
Type other

Technical Details

Classification Payload
Mass 0.75 kg
Dry Mass 0.75 kg
Total Mass 0.75 kg
Length 0.15 m
Diameter 0.05 m
Span 0.35 m
Shape Box+ 2 pan
Manufacturer HELLO
Bus Type PocketQube 3P
Phase Status In Orbit
Owner/State HELLO/TR

Large Constellations

Loading constellations...